Location: Hradec Kralove
(50.2170°N, 15.8330°E)
Time: 05:50:11
(UTC+01:00)

MOZHAYETS 4 - Visible Passes

Search period start: 27 February 2024 00:00
Search period end: 08 March 2024 00:00
Orbit: 654 x 672 km, 98.3° (Epoch: 26 February)

Date Brightness Start Highest point End Pass type
(mag) Time Alt. Az. Time Alt. Az. Time Alt. Az.
05 Mar 10.7 02:10:18 10° N 02:10:18 10° N 02:10:18 10° N visible
06 Mar 10.5 02:40:54 11° N 02:40:54 11° N 02:41:07 10° N visible
07 Mar 10.3 03:11:30 11° NNW 03:11:30 11° NNW 03:11:41 10° NNW visible
